Location: NJAA Observatory
(40.6819°N, 74.8979°W)
Time: 21:29:19
(UTC-04:00)

S-56A Canister/Altair - Visible Passes

Search period start: 28 March 2017 00:00
Search period end: 07 April 2017 00:00
Orbit: 639 x 2495 km, 38.9° (Epoch: 27 March)

Date Brightness Start Highest point End Pass type
(mag) Time Alt. Az. Time Alt. Az. Time Alt. Az.
28 Mar 11.2 04:48:37 10° S 04:57:12 19° SE 05:04:27 10° E visible
29 Mar 11.3 04:16:22 10° S 04:24:20 17° SE 04:31:17 10° ESE visible
29 Mar 10.3 06:16:53 10° SW 06:29:17 43° SSE 06:38:15 10° E visible
30 Mar 11.4 03:44:23 10° SSE 03:51:27 15° SE 03:57:50 10° ESE visible
30 Mar 10.4 05:43:47 10° SSW 05:56:21 41° SSE 06:05:45 10° E visible
31 Mar 11.5 03:12:50 10° SSE 03:18:34 13° SE 03:23:55 10° ESE visible
31 Mar 10.5 05:10:45 10° SSW 05:23:24 38° SSE 05:33:11 10° E visible
01 Apr 11.5 02:42:12 10° SE 02:45:42 11° SE 02:49:04 10° ESE visible
01 Apr 10.6 04:39:36 14° SSW 04:50:24 36° SE 05:00:30 10° E visible
02 Apr 10.7 04:09:05 19° S 04:17:23 33° SE 04:27:43 10° E visible
02 Apr 9.9 06:08:53 10° SW 06:22:51 63° SSE 06:32:52 10° E visible
03 Apr 10.8 03:38:27 23° S 03:44:21 30° SE 03:54:48 10° E visible
03 Apr 10.0 05:35:54 11° SW 05:49:48 60° SSE 06:00:24 10° E visible
04 Apr 10.8 03:07:43 25° SSE 03:11:20 28° SE 03:21:43 10° E visible
04 Apr 10.1 05:05:09 18° SW 05:16:42 57° SSE 05:27:50 10° E visible
05 Apr 10.9 02:36:54 24° SE 02:38:20 25° SE 02:48:28 10° E visible
05 Apr 10.1 04:34:20 25° SW 04:43:33 54° SSE 04:55:11 10° E visible
06 Apr 11.0 02:06:00 22° SE 02:06:00 22° SE 02:15:00 10° E visible
06 Apr 10.2 04:03:25 32° SSW 04:10:24 51° SSE 04:22:27 10° E visible
06 Apr 9.8 06:01:46 10° WSW 06:16:29 78° SSE 06:27:15 10° E visible
